Location: Chiroubles
(46.1812°N, 4.6660°E)
Time: 15:11:21
(UTC+00:00)

SPOT 1/Viking Rocket - Pass Details

Date: 15 August 2020
Orbit: 776 x 795 km, 98.5° (Epoch: 22 September)

Event Time Altitude Azimuth Distance (km) Brightness Sun altitude
Exits shadow 20:23:32 23° 133° (SE) 1,648 4.6 -14.9°
Maximum altitude 20:26:34 49° 69° (ENE) 1,018 3.9 -15.3°
Drops below altitude 10° 20:31:37 10° 356° (N) 2,375 6.7 -15.9°
Sets 20:34:00 0° 351° (N) 3,308 7.6 -16.3°
